{"data":{"norad_id":63893,"epoch":"2026-05-25T04:03:45.714240Z","epoch_age_seconds":56602,"freshness":"FRESH","line1":"1 63893U 25095D   26145.16927910  .00020238  00000+0  74257-3 0  9995","line2":"2 63893  42.9997 104.3646 0001123 258.9721 101.1004 15.27596066 59486","mean_motion":15.27596066,"eccentricity":0.0001123,"inclination_deg":42.9997,"raan_deg":104.3646,"arg_perigee_deg":258.9721,"mean_anomaly_deg":101.1004,"bstar":0.00074257,"rev_number":5948,"period_min":94.26575729346,"perigee_km":482.23048328139,"apogee_km":483.77149487374,"semimajor_km":6861.1379890776,"source":"CELESTRAK","updated_at":"2026-05-25T13:38:20.175192Z"}}